IT9NKT-WX Weather Reports


Display with metric or nautical units.
time (UTC)temp
F
wind
direction
speed
MPH
gust
MPH
rain 1hr
in
rain 24hr
in
rain mn
in
humidity
%
barometer
mb
20260905212004 82 199 0.0 1.0 0.00 0.00 0.00 63 1019.4
20260905211504 82 200 0.0 1.0 0.00 0.00 0.00 63 1019.5
20260905211004 82 201 0.0 1.0 0.00 0.00 0.00 63 1019.5
20260905210503 82 0 0.0 0.0 0.00 0.00 0.00 63 1019.6
20260905210004 82 202 0.0 1.0 0.00 0.00 0.00 63 1019.4
20260905205715 83 201 0.0 1.0 0.00 0.00 0.00 63 1019.3
20260905205004 83 206 0.0 1.0 0.00 0.00 0.00 63 1019.5
20260905204504 83 212 0.0 1.0 0.00 0.00 0.00 62 1019.4
20260905204003 83 0 0.0 0.0 0.00 0.00 0.00 62 1019.4
20260905203504 83 251 0.0 1.0 0.00 0.00 0.00 62 1019.4
20260905203215 83 249 0.0 1.0 0.00 0.00 0.00 62 1019.6
20260905202712 83 247 0.0 1.0 0.00 0.00 0.00 61 1019.4
20260905202004 83 260 0.0 1.0 0.00 0.00 0.00 62 1019.6
20260905201503 83 266 1.0 1.0 0.00 0.00 0.00 62 1019.7
20260905201004 84 284 1.0 2.0 0.00 0.00 0.00 62 1019.6
20260905200503 84 296 1.0 2.0 0.00 0.00 0.00 62 1019.6
20260905200004 84 302 1.0 2.0 0.00 0.00 0.00 62 1019.6
20260905195715 84 295 1.0 2.0 0.00 0.00 0.00 62 1019.5
20260905195004 84 290 1.0 2.0 0.00 0.00 0.00 62 1019.5
20260905194504 84 291 1.0 2.0 0.00 0.00 0.00 62 1019.7
20260905194214 84 294 1.0 2.0 0.00 0.00 0.00 62 1019.7
20260905193503 84 294 1.0 2.0 0.00 0.00 0.00 62 1019.7
20260905193003 84 275 0.0 1.0 0.00 0.00 0.00 62 1019.6
20260905192503 84 319 0.0 2.0 0.00 0.00 0.00 62 1019.6
20260905192003 84 307 1.0 2.0 0.00 0.00 0.00 62 1019.5
20260905191504 84 319 1.0 2.0 0.00 0.00 0.00 62 1019.5
20260905191003 84 339 1.0 2.0 0.00 0.00 0.00 61 1019.4
20260905190503 84 172 0.0 1.0 0.00 0.00 0.00 61 1019.1
20260905190219 84 154 0.0 1.0 0.00 0.00 0.00 61 1019.2
20260905185503 84 103 0.0 3.0 0.00 0.00 0.00 61 1019.1
20260905185005 85 79 1.0 3.0 0.00 0.00 0.00 61 1019.2
20260905184504 85 32 1.0 2.0 0.00 0.00 0.00 60 1019.1
20260905184004 85 36 0.0 2.0 0.00 0.00 0.00 59 1019.1
20260905183504 85 77 0.0 2.0 0.00 0.00 0.00 58 1019.0
20260905183216 85 80 1.0 2.0 0.00 0.00 0.00 57 1019.3
20260905182503 85 93 0.0 2.0 0.00 0.00 0.00 57 1019.2
20260905182004 85 100 0.0 2.0 0.00 0.00 0.00 57 1019.2
20260905181504 85 115 0.0 2.0 0.00 0.00 0.00 56 1019.1
20260905181003 85 107 0.0 2.0 0.00 0.00 0.00 56 1018.9
20260905180504 85 103 0.0 2.0 0.00 0.00 0.00 56 1018.9
20260905180214 85 110 1.0 3.0 0.00 0.00 0.00 55 1018.9
20260905175504 85 117 1.0 3.0 0.00 0.00 0.00 56 1018.7
20260905175005 85 116 1.0 3.0 0.00 0.00 0.00 56 1018.6
20260905174503 85 112 1.0 3.0 0.00 0.00 0.00 56 1018.7
20260905174003 85 110 0.0 3.0 0.00 0.00 0.00 57 1019.1
20260905173504 85 82 1.0 3.0 0.00 0.00 0.00 57 1018.8
20260905173004 85 69 1.0 3.0 0.00 0.00 0.00 56 1018.8
20260905172504 85 80 1.0 4.0 0.00 0.00 0.00 56 1018.7
20260905172003 85 87 1.0 4.0 0.00 0.00 0.00 57 1018.6
20260905171504 85 114 1.0 2.0 0.00 0.00 0.00 56 1018.8
20260905171004 85 129 1.0 3.0 0.00 0.00 0.00 56 1018.7
20260905170716 85 131 1.0 3.0 0.00 0.00 0.00 56 1018.8
20260905170003 85 148 2.0 4.0 0.00 0.00 0.00 55 1018.9
20260905165504 85 157 1.0 3.0 0.00 0.00 0.00 55 1019.0
20260905165215 85 156 1.0 3.0 0.00 0.00 0.00 56 1018.8
20260905164503 85 124 2.0 4.0 0.00 0.00 0.00 56 1018.9
20260905164003 85 124 2.0 6.0 0.00 0.00 0.00 57 1018.9
20260905163504 85 130 1.0 6.0 0.00 0.00 0.00 58 1018.7
20260905163004 85 118 1.0 4.0 0.00 0.00 0.00 59 1018.7
20260905162504 85 134 2.0 4.0 0.00 0.00 0.00 60 1018.7
20260905162004 85 149 2.0 7.0 0.00 0.00 0.00 60 1018.5
20260905161504 86 151 2.0 7.0 0.00 0.00 0.00 61 1018.7
20260905161003 86 144 1.0 6.0 0.00 0.00 0.00 61 1018.6
20260905160503 86 124 2.0 6.0 0.00 0.00 0.00 61 1018.6
20260905160004 86 113 2.0 6.0 0.00 0.00 0.00 62 1018.8
20260905155504 86 102 2.0 4.0 0.00 0.00 0.00 61 1018.7
20260905155003 86 93 2.0 5.0 0.00 0.00 0.00 62 1018.7
20260905154504 86 93 2.0 7.0 0.00 0.00 0.00 62 1018.6
20260905154003 86 100 2.0 7.0 0.00 0.00 0.00 61 1018.7
20260905153503 86 120 1.0 6.0 0.00 0.00 0.00 61 1018.8
20260905153213 86 101 1.0 5.0 0.00 0.00 0.00 61 1018.9
20260905152504 86 99 2.0 7.0 0.00 0.00 0.00 62 1018.7
20260905152003 86 123 2.0 7.0 0.00 0.00 0.00 62 1018.8
20260905151504 86 122 2.0 6.0 0.00 0.00 0.00 61 1018.7
20260905151003 86 118 3.0 8.0 0.00 0.00 0.00 61 1018.8
20260905150503 87 102 2.0 8.0 0.00 0.00 0.00 59 1018.8
20260905150004 86 88 2.0 6.0 0.00 0.00 0.00 62 1018.5
20260905145504 86 107 2.0 6.0 0.00 0.00 0.00 62 1018.6
20260905145005 86 115 2.0 8.0 0.00 0.00 0.00 63 1018.8
20260905144503 86 87 2.0 8.0 0.00 0.00 0.00 63 1018.8
20260905144004 86 78 3.0 7.0 0.00 0.00 0.00 63 1018.8
20260905143503 87 96 3.0 7.0 0.00 0.00 0.00 61 1018.7
20260905143213 87 111 4.0 11.0 0.00 0.00 0.00 61 1018.7
20260905142503 87 125 3.0 11.0 0.00 0.00 0.00 62 1018.7
20260905142214 87 138 2.0 7.0 0.00 0.00 0.00 62 1018.8
20260905141503 87 126 3.0 11.0 0.00 0.00 0.00 62 1018.4
20260905141003 87 116 3.0 10.0 0.00 0.00 0.00 60 1018.5
20260905140503 88 121 3.0 9.0 0.00 0.00 0.00 58 1018.6
20260905140003 88 135 4.0 8.0 0.00 0.00 0.00 54 1018.4
20260905135503 88 130 5.0 14.0 0.00 0.00 0.00 56 1018.7
20260905135217 88 111 4.0 14.0 0.00 0.00 0.00 53 1018.6
20260905134504 88 103 4.0 13.0 0.00 0.00 0.00 53 1018.5
20260905134003 89 93 4.0 13.0 0.00 0.00 0.00 48 1018.5
20260905133716 89 96 5.0 13.0 0.00 0.00 0.00 43 1018.6
20260905133004 90 115 4.0 11.0 0.00 0.00 0.00 49 1018.7
20260905132503 90 115 4.0 11.0 0.00 0.00 0.00 44 1018.7
20260905132004 90 112 3.0 10.0 0.00 0.00 0.00 45 1018.3
20260905131503 90 94 3.0 10.0 0.00 0.00 0.00 46 1018.4
20260905131004 91 69 3.0 7.0 0.00 0.00 0.00 44 1018.4
20260905130503 90 85 3.0 7.0 0.00 0.00 0.00 41 1018.5
20260905130003 90 101 4.0 10.0 0.00 0.00 0.00 40 1018.5
20260905125503 90 100 4.0 10.0 0.00 0.00 0.00 40 1018.6
20260905125003 91 91 3.0 8.0 0.00 0.00 0.00 39 1018.5
20260905124503 91 104 3.0 7.0 0.00 0.00 0.00 39 1018.7
20260905124003 90 115 4.0 10.0 0.00 0.00 0.00 37 1018.6
20260905123504 91 88 3.0 10.0 0.00 0.00 0.00 37 1018.6
20260905123003 90 65 2.0 10.0 0.00 0.00 0.00 39 1018.7
20260905122504 89 85 2.0 10.0 0.00 0.00 0.00 40 1018.8
20260905122216 89 85 2.0 7.0 0.00 0.00 0.00 43 1019.0
20260905121503 89 94 3.0 10.0 0.00 0.00 0.00 48 1019.0
20260905121003 90 103 2.0 8.0 0.00 0.00 0.00 45 1018.9
20260905120503 91 107 3.0 10.0 0.00 0.00 0.00 44 1018.9
20260905120004 89 94 3.0 10.0 0.00 0.00 0.00 45 1019.0
20260905115503 89 99 3.0 8.0 0.00 0.00 0.00 48 1019.0
20260905115003 90 117 2.0 7.0 0.00 0.00 0.00 44 1019.1
20260905114504 91 123 3.0 10.0 0.00 0.00 0.00 43 1019.1
20260905114004 90 121 3.0 10.0 0.00 0.00 0.00 46 1019.2
20260905113504 89 111 3.0 9.0 0.00 0.00 0.00 46 1019.2
20260905113004 90 108 3.0 9.0 0.00 0.00 0.00 46 1019.2
20260905112504 90 123 2.0 7.0 0.00 0.00 0.00 43 1019.2
20260905112003 91 113 2.0 6.0 0.00 0.00 0.00 45 1019.1
20260905111503 90 118 2.0 8.0 0.00 0.00 0.00 49 1019.2
20260905111003 90 128 3.0 8.0 0.00 0.00 0.00 47 1019.4
20260905110504 90 114 2.0 7.0 0.00 0.00 0.00 46 1019.3
20260905110004 91 123 2.0 6.0 0.00 0.00 0.00 48 1019.5
20260905105503 90 147 2.0 6.0 0.00 0.00 0.00 49 1019.4
20260905105004 90 133 2.0 7.0 0.00 0.00 0.00 50 1019.5
20260905104503 89 122 2.0 7.0 0.00 0.00 0.00 51 1019.4
20260905104003 91 127 2.0 6.0 0.00 0.00 0.00 51 1019.6
20260905103503 89 90 2.0 7.0 0.00 0.00 0.00 49 1019.3
20260905103003 88 82 2.0 7.0 0.00 0.00 0.00 54 1019.3
20260905102714 89 92 1.0 7.0 0.00 0.00 0.00 53 1019.6
20260905102003 89 108 2.0 6.0 0.00 0.00 0.00 54 1019.6
20260905101715 90 111 2.0 6.0 0.00 0.00 0.00 53 1019.5
20260905101003 91 114 2.0 8.0 0.00 0.00 0.00 52 1019.6
20260905100716 90 112 2.0 8.0 0.00 0.00 0.00 49 1019.6
20260905100004 89 88 1.0 6.0 0.00 0.00 0.00 52 1019.7
20260905095504 89 132 2.0 6.0 0.00 0.00 0.00 51 1019.5
20260905095215 90 137 2.0 6.0 0.00 0.00 0.00 51 1019.7
20260905094504 91 148 1.0 7.0 0.00 0.00 0.00 48 1019.6
20260905094004 92 172 2.0 7.0 0.00 0.00 0.00 49 1019.7
20260905093503 91 128 1.0 3.0 0.00 0.00 0.00 46 1019.9
20260905093003 89 94 1.0 6.0 0.00 0.00 0.00 50 1019.7
20260905092503 89 92 1.0 6.0 0.00 0.00 0.00 48 1019.7
20260905092003 89 99 1.0 4.0 0.00 0.00 0.00 47 1019.8
20260905091504 92 150 1.0 3.0 0.00 0.00 0.00 45 1019.7
20260905091004 92 179 1.0 3.0 0.00 0.00 0.00 45 1019.6
20260905090504 92 158 1.0 3.0 0.00 0.00 0.00 44 1019.7
20260905090004 90 104 1.0 4.0 0.00 0.00 0.00 47 1019.7
20260905085503 89 114 1.0 4.0 0.00 0.00 0.00 48 1019.7
20260905085004 91 155 1.0 4.0 0.00 0.00 0.00 47 1019.9
20260905084504 90 163 1.0 4.0 0.00 0.00 0.00 46 1019.7
20260905084004 91 146 1.0 4.0 0.00 0.00 0.00 46 1019.8
20260905083503 89 155 2.0 4.0 0.00 0.00 0.00 48 1020.0
20260905083003 90 183 2.0 4.0 0.00 0.00 0.00 49 1019.9
20260905082503 90 176 1.0 3.0 0.00 0.00 0.00 48 1019.9
20260905082005 89 174 1.0 3.0 0.00 0.00 0.00 49 1020.0
20260905081504 90 172 1.0 3.0 0.00 0.00 0.00 48 1019.9
20260905081004 90 152 1.0 3.0 0.00 0.00 0.00 48 1019.8
20260905080717 89 157 1.0 4.0 0.00 0.00 0.00 51 1019.8
20260905080003 88 188 2.0 4.0 0.00 0.00 0.00 48 1019.7
20260905075504 88 183 2.0 4.0 0.00 0.00 0.00 50 1019.6
20260905075216 88 178 2.0 4.0 0.00 0.00 0.00 50 1019.6
20260905074714 88 188 1.0 4.0 0.00 0.00 0.00 52 1019.6
20260905074217 88 113 1.0 6.0 0.00 0.00 0.00 52 1019.6
20260905073504 88 125 1.0 4.0 0.00 0.00 0.00 50 1019.5
20260905073218 88 129 1.0 4.0 0.00 0.00 0.00 50 1019.7
20260905072504 87 138 1.0 3.0 0.00 0.00 0.00 51 1019.5
20260905072003 87 133 1.0 4.0 0.00 0.00 0.00 55 1019.5
20260905071503 87 138 1.0 4.0 0.00 0.00 0.00 53 1019.7
20260905071214 87 137 1.0 4.0 0.00 0.00 0.00 54 1019.7
20260905070503 87 173 1.0 2.0 0.00 0.00 0.00 51 1019.5
20260905070003 87 174 1.0 3.0 0.00 0.00 0.00 49 1019.6
20260905065503 88 164 1.0 3.0 0.00 0.00 0.00 49 1019.6
20260905065004 87 138 1.0 3.0 0.00 0.00 0.00 49 1019.7
20260905064504 86 129 1.0 3.0 0.00 0.00 0.00 51 1019.6
20260905064004 86 111 1.0 2.0 0.00 0.00 0.00 52 1019.4
20260905063504 85 123 0.0 1.0 0.00 0.00 0.00 53 1019.5
20260905063213 85 130 0.0 2.0 0.00 0.00 0.00 52 1019.6
20260905062504 87 129 0.0 2.0 0.00 0.00 0.00 51 1019.5
20260905062003 87 139 0.0 2.0 0.00 0.00 0.00 51 1019.3
20260905061504 87 156 0.0 2.0 0.00 0.00 0.00 51 1019.4
20260905061215 86 158 0.0 1.0 0.00 0.00 0.00 51 1019.3
20260905060504 87 152 0.0 1.0 0.00 0.00 0.00 49 1019.2
20260905060004 86 164 0.0 1.0 0.00 0.00 0.00 49 1019.4
20260905055503 86 191 0.0 1.0 0.00 0.00 0.00 49 1019.2
20260905055003 86 0 0.0 0.0 0.00 0.00 0.00 48 1019.3
20260905054503 85 186 0.0 1.0 0.00 0.00 0.00 48 1019.2
20260905054003 84 185 0.0 1.0 0.00 0.00 0.00 49 1019.4
20260905053505 84 184 0.0 1.0 0.00 0.00 0.00 49 1019.2
20260905053003 83 0 0.0 0.0 0.00 0.00 0.00 49 1019.1
20260905052717 83 0 0.0 0.0 0.00 0.00 0.00 49 1019.2
20260905052004 82 0 0.0 0.0 0.00 0.00 0.00 51 1019.0
20260905051504 81 0 0.0 0.0 0.00 0.00 0.00 52 1019.0
20260905051003 80 204 0.0 1.0 0.00 0.00 0.00 53 1019.1
20260905050503 79 203 0.0 1.0 0.00 0.00 0.00 53 1018.9
20260905050004 79 193 0.0 1.0 0.00 0.00 0.00 53 1019.1
20260905045504 78 198 0.0 1.0 0.00 0.00 0.00 54 1018.9
20260905045003 78 209 0.0 1.0 0.00 0.00 0.00 54 1018.9
20260905044504 78 198 0.0 1.0 0.00 0.00 0.00 54 1018.8
20260905044214 78 194 0.0 1.0 0.00 0.00 0.00 54 1018.8
20260905043717 78 184 0.0 1.0 0.00 0.00 0.00 54 1018.8
20260905043004 77 0 0.0 0.0 0.00 0.00 0.00 56 1018.9
20260905042504 77 0 0.0 0.0 0.00 0.00 0.00 57 1018.8
20260905042003 77 0 0.0 0.0 0.00 0.00 0.00 58 1018.8
20260905041504 77 192 0.0 1.0 0.00 0.00 0.00 58 1018.8
20260905041216 77 192 0.0 1.0 0.00 0.00 0.00 58 1018.8
20260905040504 78 0 0.0 0.0 0.00 0.00 0.00 58 1018.9
20260905040217 78 198 0.0 1.0 0.00 0.00 0.00 58 1018.8
20260905035715 78 199 0.0 1.0 0.00 0.00 0.00 58 1018.8
20260905035003 78 190 0.0 1.0 0.00 0.00 0.00 58 1018.8
20260905034503 78 0 0.0 0.0 0.00 0.00 0.00 59 1018.7
20260905034004 78 228 0.0 0.0 0.00 0.00 0.00 59 1018.6
20260905033503 78 233 0.0 1.0 0.00 0.00 0.00 58 1018.7
20260905033004 79 235 0.0 1.0 0.00 0.00 0.00 58 1018.5
20260905032504 79 229 0.0 0.0 0.00 0.00 0.00 58 1018.6
20260905032003 79 229 0.0 1.0 0.00 0.00 0.00 58 1018.3
20260905031504 79 229 0.0 1.0 0.00 0.00 0.00 57 1018.4
20260905031004 79 0 0.0 0.0 0.00 0.00 0.00 58 1018.5
20260905030503 79 0 0.0 0.0 0.00 0.00 0.00 58 1018.4
20260905030003 78 174 0.0 1.0 0.00 0.00 0.00 57 1018.6
20260905025503 78 172 0.0 1.0 0.00 0.00 0.00 57 1018.3
20260905025214 79 174 0.0 1.0 0.00 0.00 0.00 56 1018.3
20260905024503 79 187 0.0 1.0 0.00 0.00 0.00 56 1018.3
20260905024004 79 175 1.0 2.0 0.00 0.00 0.00 56 1018.1
20260905023504 79 171 1.0 2.0 0.00 0.00 0.00 57 1018.1
20260905023004 79 177 0.0 1.0 0.00 0.00 0.00 58 1018.1
20260905022504 79 176 1.0 2.0 0.00 0.00 0.00 58 1018.0
20260905022003 79 175 1.0 2.0 0.00 0.00 0.00 58 1018.2
20260905021503 79 172 1.0 2.0 0.00 0.00 0.00 58 1018.2
20260905021004 80 173 1.0 2.0 0.00 0.00 0.00 59 1018.2
20260905020503 80 175 1.0 2.0 0.00 0.00 0.00 58 1018.3
20260905020003 80 176 1.0 2.0 0.00 0.00 0.00 58 1018.2
20260905015504 80 177 1.0 2.0 0.00 0.00 0.00 58 1018.2
20260905015003 80 174 1.0 2.0 0.00 0.00 0.00 57 1018.2
20260905014503 80 179 0.0 1.0 0.00 0.00 0.00 57 1018.1
20260905014004 80 173 1.0 1.0 0.00 0.00 0.00 57 1018.2
20260905013503 80 169 1.0 2.0 0.00 0.00 0.00 57 1018.2
20260905013004 80 179 0.0 2.0 0.00 0.00 0.00 57 1018.3
20260905012503 80 188 0.0 1.0 0.00 0.00 0.00 57 1018.4
20260905012004 80 181 1.0 2.0 0.00 0.00 0.00 57 1018.4
20260905011503 80 179 1.0 2.0 0.00 0.00 0.00 57 1018.3
20260905011003 80 185 1.0 2.0 0.00 0.00 0.00 58 1018.4
20260905010504 80 182 1.0 2.0 0.00 0.00 0.00 58 1018.3
20260905010004 80 179 0.0 2.0 0.00 0.00 0.00 60 1018.3
20260905005503 80 184 0.0 1.0 0.00 0.00 0.00 60 1018.4
20260905005004 80 175 1.0 2.0 0.00 0.00 0.00 59 1018.3
20260905004503 80 171 1.0 2.0 0.00 0.00 0.00 60 1018.3
20260905004003 80 173 0.0 1.0 0.00 0.00 0.00 61 1018.4
20260905003504 80 177 0.0 1.0 0.00 0.00 0.00 63 1018.4
20260905003003 80 184 0.0 0.0 0.00 0.00 0.00 64 1018.3
20260905002504 80 185 0.0 1.0 0.00 0.00 0.00 64 1018.3
20260905002004 80 185 0.0 1.0 0.00 0.00 0.00 65 1018.5
20260905001503 80 166 0.0 1.0 0.00 0.00 0.00 65 1018.5
20260905001004 80 176 0.0 1.0 0.00 0.00 0.00 66 1018.4
20260905000504 80 190 0.0 1.0 0.00 0.00 0.00 65 1018.6
20260905000004 80 190 0.0 1.0 0.00 0.00 0.00 66 1018.7
20260904235503 80 181 0.0 2.0 0.00 0.00 0.00 66 1018.6
20260904235003 80 181 0.0 2.0 0.00 0.00 0.00 67 1018.7
20260904234504 80 178 0.0 1.0 0.00 0.00 0.00 68 1018.8
20260904234004 80 173 0.0 1.0 0.00 0.00 0.00 68 1018.5
20260904233503 80 187 0.0 1.0 0.00 0.00 0.00 68 1018.6
20260904233004 80 195 0.0 1.0 0.00 0.00 0.00 68 1018.7
20260904232503 80 184 0.0 1.0 0.00 0.00 0.00 69 1018.7
20260904232003 80 183 0.0 1.0 0.00 0.00 0.00 69 1018.9
20260904231504 80 188 0.0 1.0 0.00 0.00 0.00 69 1018.8
20260904230504 80 180 0.0 1.0 0.00 0.00 0.00 69 1019.0
20260904230003 80 180 0.0 1.0 0.00 0.00 0.00 69 1019.0
20260904225713 81 169 0.0 1.0 0.00 0.00 0.00 69 1019.0
20260904225003 81 176 0.0 1.0 0.00 0.00 0.00 69 1019.1
20260904224504 81 191 0.0 1.0 0.00 0.00 0.00 69 1019.1
20260904224003 80 191 0.0 1.0 0.00 0.00 0.00 69 1019.2
20260904223503 81 191 0.0 1.0 0.00 0.00 0.00 70 1019.0
20260904223003 81 0 0.0 0.0 0.00 0.00 0.00 71 1019.3
20260904222504 81 0 0.0 0.0 0.00 0.00 0.00 71 1019.4
20260904222004 81 195 0.0 1.0 0.00 0.00 0.00 70 1019.2
20260904221503 81 195 0.0 1.0 0.00 0.00 0.00 70 1019.3
20260904221004 81 0 0.0 0.0 0.00 0.00 0.00 70 1019.3
20260904220503 81 0 0.0 0.0 0.00 0.00 0.00 70 1019.3
20260904220216 81 0 0.0 0.0 0.00 0.00 0.00 70 1019.2
20260904215503 82 170 0.0 1.0 0.00 0.00 0.00 70 1019.5
20260904215003 82 197 0.0 2.0 0.00 0.00 0.00 70 1019.3
20260904214504 82 203 0.0 2.0 0.00 0.00 0.00 70 1019.3
20260904214004 82 188 0.0 1.0 0.00 0.00 0.00 70 1019.3
20260904213503 82 186 0.0 0.0 0.00 0.00 0.00 70 1019.4
20260904213004 82 202 0.0 2.0 0.00 0.00 0.00 71 1019.3
20260904212503 82 200 0.0 2.0 0.00 0.00 0.00 71 1019.2